Location: Asheville, NC
(35.6000°N, 82.5500°W)
Time: 20:21:34

HO-68 - Pass Details

Date: 16 March 2018
Orbit: 1193 x 1204 km, 100.1° (Epoch: 19 March)

Event Time Altitude Azimuth Distance (km) Brightness Sun altitude
Rises 21:08:45 0° 209° (SSW) 4,077 ? -19.0°
Reaches altitude 10° 21:12:25 10° 228° (SW) 3,119 ? -19.7°
Maximum altitude 21:16:54 18° 268° (W) 2,596 ? -20.6°
Drops below altitude 10° 21:21:24 10° 307° (NW) 3,134 ? -21.5°
Sets 21:25:10 0° 326° (NNW) 4,105 ? -22.2°
